| time (UTC) | temp C | wind direction | speed KPH | gust KPH | rain 1hr cm | rain 24hr cm | rain mn cm | humidity % | barometer mb |
| 20260506020003 | -2 | 180 | 0.0 | 1.6 | 0.00 | 0.00 | 0.00 | 11 | 993.2 |
| 20260506015403 | -2 | 180 | 0.0 | 3.2 | 0.00 | 0.00 | 0.00 | 11 | 993.2 |
| 20260506014720 | -2 | 180 | 1.6 | 4.8 | 0.00 | 0.00 | 0.00 | 11 | 993.2 |
| 20260506014503 | -2 | 180 | 1.6 | 4.8 | 0.00 | 0.00 | 0.00 | 11 | 993.1 |
| 20260506013603 | -2 | 180 | 1.6 | 3.2 | 0.00 | 0.00 | 0.00 | 11 | 993.1 |
| 20260506012722 | -1 | 180 | 1.6 | 4.8 | 0.00 | 0.00 | 0.00 | 11 | 993.0 |
| 20260506012703 | -1 | 180 | 1.6 | 4.8 | 0.00 | 0.00 | 0.00 | 11 | 993.0 |
| 20260506012246 | -1 | 178 | 1.6 | 6.4 | 0.00 | 0.00 | 0.00 | 11 | 992.9 |
| 20260506011803 | -1 | 167 | 3.2 | 6.4 | 0.00 | 0.00 | 0.00 | 11 | 992.9 |
| 20260506011746 | -1 | 164 | 3.2 | 6.4 | 0.00 | 0.00 | 0.00 | 11 | 992.8 |
| 20260506011246 | -1 | 135 | 0.0 | 3.2 | 0.00 | 0.00 | 0.00 | 11 | 993.0 |
| 20260506010903 | -1 | 135 | 0.0 | 3.2 | 0.00 | 0.00 | 0.00 | 11 | 992.9 |
| 20260506010722 | -1 | 0 | 0.0 | 0.0 | 0.00 | 0.00 | 0.00 | 11 | 992.9 |
| 20260506010003 | -1 | 135 | 0.0 | 3.2 | 0.00 | 0.00 | 0.00 | 11 | 992.9 |
| 20260506005403 | -1 | 136 | 0.0 | 3.2 | 0.00 | 0.00 | 0.00 | 11 | 992.9 |
| 20260506005246 | -1 | 140 | 0.0 | 3.2 | 0.00 | 0.00 | 0.00 | 11 | 992.8 |
| 20260506004504 | -1 | 168 | 1.6 | 3.2 | 0.00 | 0.00 | 0.00 | 11 | 992.8 |
| 20260506003746 | -1 | 180 | 0.0 | 1.6 | 0.00 | 0.00 | 0.00 | 11 | 992.7 |
| 20260506003603 | -1 | 180 | 0.0 | 1.6 | 0.00 | 0.00 | 0.00 | 11 | 992.8 |
| 20260506003245 | -1 | 180 | 0.0 | 1.6 | 0.00 | 0.00 | 0.00 | 11 | 992.8 |
| 20260506002722 | -1 | 200 | 0.0 | 4.8 | 0.00 | 0.00 | 0.00 | 11 | 992.8 |
| 20260506002704 | -1 | 200 | 0.0 | 4.8 | 0.00 | 0.00 | 0.00 | 11 | 992.8 |
| 20260506001803 | -1 | 211 | 1.6 | 6.4 | 0.00 | 0.00 | 0.00 | 11 | 992.9 |
| 20260506001247 | -1 | 211 | 0.0 | 4.8 | 0.00 | 0.00 | 0.00 | 11 | 992.8 |
| 20260506000903 | -1 | 217 | 0.0 | 4.8 | 0.00 | 0.00 | 0.00 | 11 | 992.7 |
| 20260506000722 | -2 | 225 | 1.6 | 3.2 | 0.00 | 0.00 | 0.00 | 11 | 992.7 |
| 20260506000247 | -2 | 210 | 1.6 | 3.2 | 0.00 | 0.00 | 0.00 | 11 | 992.8 |
| 20260506000003 | -2 | 202 | 1.6 | 4.8 | 0.00 | 0.00 | 0.00 | 11 | 992.7 |
| 20260505235403 | -2 | 189 | 1.6 | 4.8 | 0.00 | 0.00 | 0.00 | 11 | 992.7 |
| 20260505235247 | -2 | 198 | 0.0 | 4.8 | 0.00 | 0.00 | 0.00 | 11 | 992.7 |
| 20260505234724 | -2 | 216 | 0.0 | 3.2 | 0.00 | 0.00 | 0.00 | 11 | 992.8 |
| 20260505234503 | -2 | 223 | 0.0 | 3.2 | 0.00 | 0.00 | 0.00 | 11 | 992.8 |
| 20260505234245 | -2 | 225 | 1.6 | 3.2 | 0.00 | 0.00 | 0.00 | 11 | 992.8 |
| 20260505233603 | -2 | 238 | 0.0 | 4.8 | 0.00 | 0.00 | 0.00 | 11 | 992.9 |
| 20260505232721 | -1 | 224 | 1.6 | 6.4 | 0.00 | 0.00 | 0.00 | 11 | 992.9 |
| 20260505232703 | -1 | 224 | 1.6 | 6.4 | 0.00 | 0.00 | 0.00 | 11 | 992.9 |
| 20260505231803 | -1 | 212 | 3.2 | 8.0 | 0.00 | 0.00 | 0.00 | 11 | 992.8 |
| 20260505231744 | -1 | 210 | 3.2 | 8.0 | 0.00 | 0.00 | 0.00 | 11 | 992.9 |
| 20260505231246 | -1 | 216 | 3.2 | 8.0 | 0.00 | 0.00 | 0.00 | 11 | 992.8 |
| 20260505230903 | -1 | 217 | 3.2 | 8.0 | 0.00 | 0.00 | 0.00 | 11 | 992.9 |
| 20260505230248 | -1 | 207 | 3.2 | 8.0 | 0.00 | 0.00 | 0.00 | 11 | 992.8 |
| 20260505230003 | -1 | 198 | 3.2 | 8.0 | 0.00 | 0.00 | 0.00 | 11 | 992.7 |
| 20260505225745 | -1 | 204 | 3.2 | 8.0 | 0.00 | 0.00 | 0.00 | 11 | 992.9 |
| 20260505225403 | -1 | 195 | 3.2 | 8.0 | 0.00 | 0.00 | 0.00 | 11 | 992.9 |
| 20260505225245 | -1 | 202 | 3.2 | 6.4 | 0.00 | 0.00 | 0.00 | 11 | 992.9 |
| 20260505224503 | -1 | 215 | 1.6 | 4.8 | 0.00 | 0.00 | 0.00 | 11 | 992.9 |
| 20260505224244 | -1 | 214 | 1.6 | 4.8 | 0.00 | 0.00 | 0.00 | 11 | 992.8 |
| 20260505223744 | -1 | 210 | 1.6 | 4.8 | 0.00 | 0.00 | 0.00 | 11 | 992.9 |
| 20260505223603 | -1 | 215 | 3.2 | 4.8 | 0.00 | 0.00 | 0.00 | 11 | 993.0 |
| 20260505223244 | -1 | 217 | 1.6 | 4.8 | 0.00 | 0.00 | 0.00 | 11 | 992.9 |
| 20260505222723 | -1 | 234 | 1.6 | 4.8 | 0.00 | 0.00 | 0.00 | 11 | 993.1 |
| 20260505222703 | -1 | 234 | 1.6 | 4.8 | 0.00 | 0.00 | 0.00 | 11 | 993.1 |
| 20260505221803 | -1 | 238 | 0.0 | 4.8 | 0.00 | 0.00 | 0.00 | 11 | 993.1 |
| 20260505221746 | -1 | 235 | 0.0 | 4.8 | 0.00 | 0.00 | 0.00 | 11 | 993.0 |
| 20260505220903 | -1 | 217 | 0.0 | 4.8 | 0.00 | 0.00 | 0.00 | 11 | 992.9 |
| 20260505220003 | -1 | 210 | 1.6 | 6.4 | 0.00 | 0.00 | 0.00 | 11 | 993.0 |
| 20260505215403 | -1 | 225 | 3.2 | 6.4 | 0.00 | 0.00 | 0.00 | 11 | 992.9 |
| 20260505214723 | -1 | 223 | 3.2 | 6.4 | 0.00 | 0.00 | 0.00 | 11 | 992.9 |
| 20260505214503 | -1 | 227 | 1.6 | 6.4 | 0.00 | 0.00 | 0.00 | 11 | 992.9 |
| 20260505214247 | -1 | 222 | 3.2 | 8.0 | 0.00 | 0.00 | 0.00 | 11 | 993.1 |
| 20260505213603 | -1 | 217 | 3.2 | 8.0 | 0.00 | 0.00 | 0.00 | 11 | 992.8 |
| 20260505213245 | -1 | 213 | 3.2 | 6.4 | 0.00 | 0.00 | 0.00 | 11 | 993.1 |
| 20260505212703 | -1 | 218 | 3.2 | 9.7 | 0.00 | 0.00 | 0.00 | 11 | 992.9 |
| 20260505211803 | 0 | 215 | 3.2 | 11.3 | 0.00 | 0.00 | 0.00 | 11 | 992.8 |
| 20260505211245 | 0 | 208 | 3.2 | 11.3 | 0.00 | 0.00 | 0.00 | 11 | 992.8 |
| 20260505210903 | 0 | 201 | 6.4 | 11.3 | 0.00 | 0.00 | 0.00 | 11 | 992.8 |
| 20260505210722 | 0 | 198 | 3.2 | 8.0 | 0.00 | 0.00 | 0.00 | 11 | 992.8 |
| 20260505210248 | 0 | 215 | 3.2 | 8.0 | 0.00 | 0.00 | 0.00 | 11 | 992.7 |
| 20260505210003 | 0 | 221 | 3.2 | 8.0 | 0.00 | 0.00 | 0.00 | 11 | 992.7 |
| 20260505205403 | 0 | 233 | 3.2 | 8.0 | 0.00 | 0.00 | 0.00 | 11 | 992.7 |
| 20260505205245 | 0 | 222 | 3.2 | 8.0 | 0.00 | 0.00 | 0.00 | 11 | 992.7 |
| 20260505204606 | 0 | 229 | 1.6 | 9.7 | 0.00 | 0.00 | 0.00 | 11 | 992.6 |
| 20260505204503 | 0 | 231 | 3.2 | 9.7 | 0.00 | 0.00 | 0.00 | 11 | 992.6 |
| 20260505203606 | 0 | 247 | 3.2 | 8.0 | 0.00 | 0.00 | 0.00 | 11 | 992.6 |
| 20260505203603 | 0 | 251 | 3.2 | 8.0 | 0.00 | 0.00 | 0.00 | 11 | 992.6 |
| 20260505202703 | 0 | 222 | 3.2 | 12.9 | 0.00 | 0.00 | 0.00 | 11 | 992.6 |
| 20260505202606 | 0 | 226 | 3.2 | 12.9 | 0.00 | 0.00 | 0.00 | 11 | 992.5 |
| 20260505201803 | 0 | 242 | 3.2 | 12.9 | 0.00 | 0.00 | 0.00 | 11 | 992.5 |
| 20260505200903 | 1 | 258 | 1.6 | 6.4 | 0.00 | 0.00 | 0.00 | 11 | 992.4 |
| 20260505200716 | 1 | 255 | 3.2 | 6.4 | 0.00 | 0.00 | 0.00 | 11 | 992.4 |
| 20260505200606 | 1 | 256 | 1.6 | 6.4 | 0.00 | 0.00 | 0.00 | 11 | 992.6 |
| 20260505200003 | 1 | 229 | 1.6 | 6.4 | 0.00 | 0.00 | 0.00 | 11 | 992.5 |
| 20260505195606 | 1 | 235 | 1.6 | 9.7 | 0.00 | 0.00 | 0.00 | 11 | 992.4 |
| 20260505195403 | 1 | 239 | 0.0 | 12.9 | 0.00 | 0.00 | 0.00 | 11 | 992.4 |
| 20260505195106 | 1 | 243 | 1.6 | 12.9 | 0.00 | 0.00 | 0.00 | 11 | 992.3 |
| 20260505194606 | 1 | 241 | 3.2 | 12.9 | 0.00 | 0.00 | 0.00 | 11 | 992.3 |
| 20260505194503 | 1 | 243 | 3.2 | 12.9 | 0.00 | 0.00 | 0.00 | 11 | 992.4 |
| 20260505194112 | 1 | 244 | 4.8 | 12.9 | 0.00 | 0.00 | 0.00 | 11 | 992.2 |
| 20260505193609 | 1 | 236 | 3.2 | 8.0 | 0.00 | 0.00 | 0.00 | 11 | 992.3 |
| 20260505193603 | 1 | 240 | 4.8 | 11.3 | 0.00 | 0.00 | 0.00 | 11 | 992.3 |
| 20260505193106 | 1 | 251 | 3.2 | 6.4 | 0.00 | 0.00 | 0.00 | 11 | 992.3 |
| 20260505192712 | 2 | 289 | 3.2 | 12.9 | 0.00 | 0.00 | 0.00 | 11 | 992.3 |
| 20260505192703 | 2 | 289 | 3.2 | 12.9 | 0.00 | 0.00 | 0.00 | 11 | 992.3 |
| 20260505192612 | 2 | 298 | 1.6 | 12.9 | 0.00 | 0.00 | 0.00 | 11 | 992.2 |
| 20260505192110 | 2 | 273 | 3.2 | 12.9 | 0.00 | 0.00 | 0.00 | 11 | 992.3 |
| 20260505191803 | 2 | 269 | 6.4 | 12.9 | 0.00 | 0.00 | 0.00 | 11 | 992.3 |
| 20260505191108 | 2 | 283 | 1.6 | 12.9 | 0.00 | 0.00 | 0.00 | 11 | 992.3 |
| 20260505190903 | 2 | 283 | 3.2 | 12.9 | 0.00 | 0.00 | 0.00 | 11 | 992.2 |
| 20260505190714 | 2 | 297 | 4.8 | 11.3 | 0.00 | 0.00 | 0.00 | 11 | 992.2 |
| 20260505190609 | 2 | 293 | 8.0 | 11.3 | 0.00 | 0.00 | 0.00 | 11 | 992.2 |
| 20260505190004 | 2 | 317 | 3.2 | 16.1 | 0.00 | 0.00 | 0.00 | 11 | 992.1 |
| 20260505185403 | 2 | 311 | 6.4 | 16.1 | 0.00 | 0.00 | 0.00 | 11 | 992.1 |
| 20260505185107 | 2 | 307 | 4.8 | 12.9 | 0.00 | 0.00 | 0.00 | 11 | 992.2 |
| 20260505184503 | 2 | 319 | 6.4 | 14.5 | 0.00 | 0.00 | 0.00 | 11 | 992.1 |
| 20260505183608 | 2 | 335 | 6.4 | 12.9 | 0.00 | 0.00 | 0.00 | 11 | 991.9 |
| 20260505183603 | 2 | 335 | 6.4 | 12.9 | 0.00 | 0.00 | 0.00 | 11 | 991.9 |
| 20260505182713 | 2 | 329 | 3.2 | 14.5 | 0.00 | 0.00 | 0.00 | 11 | 991.9 |
| 20260505182704 | 2 | 329 | 3.2 | 16.1 | 0.00 | 0.00 | 0.00 | 11 | 991.9 |
| 20260505181803 | 3 | 305 | 3.2 | 16.1 | 0.00 | 0.00 | 0.00 | 11 | 991.9 |
| 20260505181607 | 3 | 305 | 6.4 | 16.1 | 0.00 | 0.00 | 0.00 | 11 | 991.9 |
| 20260505181107 | 4 | 327 | 6.4 | 16.1 | 0.00 | 0.00 | 0.00 | 11 | 991.8 |
| 20260505180903 | 4 | 338 | 6.4 | 16.1 | 0.00 | 0.00 | 0.00 | 11 | 992.0 |
| 20260505180109 | 4 | 326 | 8.0 | 22.5 | 0.00 | 0.00 | 0.00 | 11 | 991.8 |
| 20260505180004 | 4 | 327 | 8.0 | 22.5 | 0.00 | 0.00 | 0.00 | 11 | 991.9 |
| 20260505175607 | 4 | 336 | 11.3 | 22.5 | 0.00 | 0.00 | 0.00 | 11 | 991.8 |
| 20260505175403 | 4 | 336 | 11.3 | 20.9 | 0.00 | 0.00 | 0.00 | 11 | 991.7 |
| 20260505175110 | 4 | 341 | 8.0 | 20.9 | 0.00 | 0.00 | 0.00 | 11 | 991.8 |
| 20260505174713 | 3 | 326 | 8.0 | 24.1 | 0.00 | 0.00 | 0.00 | 11 | 991.6 |
| 20260505174609 | 3 | 325 | 6.4 | 24.1 | 0.00 | 0.00 | 0.00 | 11 | 991.7 |
| 20260505174503 | 3 | 331 | 8.0 | 24.1 | 0.00 | 0.00 | 0.00 | 11 | 991.8 |
| 20260505174107 | 3 | 331 | 8.0 | 24.1 | 0.00 | 0.00 | 0.00 | 11 | 991.7 |
| 20260505173607 | 3 | 339 | 6.4 | 20.9 | 0.00 | 0.00 | 0.00 | 11 | 991.7 |
| 20260505173603 | 3 | 339 | 6.4 | 20.9 | 0.00 | 0.00 | 0.00 | 11 | 991.7 |
| 20260505173107 | 3 | 348 | 4.8 | 20.9 | 0.00 | 0.00 | 0.00 | 11 | 991.8 |
| 20260505172712 | 4 | 355 | 6.4 | 30.6 | 0.00 | 0.00 | 0.00 | 11 | 991.7 |
| 20260505172703 | 4 | 355 | 6.4 | 30.6 | 0.00 | 0.00 | 0.00 | 11 | 991.7 |
| 20260505172608 | 4 | 355 | 11.3 | 30.6 | 0.00 | 0.00 | 0.00 | 11 | 991.6 |
| 20260505171803 | 3 | 330 | 11.3 | 30.6 | 0.00 | 0.00 | 0.00 | 11 | 991.7 |
| 20260505171612 | 3 | 318 | 8.0 | 27.4 | 0.00 | 0.00 | 0.00 | 11 | 991.5 |
| 20260505171108 | 4 | 296 | 8.0 | 27.4 | 0.00 | 0.00 | 0.00 | 11 | 991.5 |
| 20260505170903 | 5 | 290 | 8.0 | 27.4 | 0.00 | 0.00 | 0.00 | 11 | 991.7 |
| 20260505170712 | 5 | 292 | 17.7 | 27.4 | 0.00 | 0.00 | 0.00 | 11 | 991.4 |
| 20260505170613 | 5 | 287 | 12.9 | 27.4 | 0.00 | 0.00 | 0.00 | 11 | 991.6 |
| 20260505170108 | 4 | 290 | 11.3 | 27.4 | 0.00 | 0.00 | 0.00 | 11 | 991.4 |
| 20260505170003 | 4 | 302 | 11.3 | 27.4 | 0.00 | 0.00 | 0.00 | 11 | 991.4 |
| 20260505165608 | 3 | 318 | 8.0 | 22.5 | 0.00 | 0.00 | 0.00 | 11 | 991.4 |
| 20260505165403 | 3 | 319 | 8.0 | 22.5 | 0.00 | 0.00 | 0.00 | 11 | 991.4 |
| 20260505165109 | 3 | 316 | 8.0 | 22.5 | 0.00 | 0.00 | 0.00 | 11 | 991.4 |
| 20260505164503 | 4 | 291 | 11.3 | 20.9 | 0.00 | 0.00 | 0.00 | 11 | 991.5 |
| 20260505163603 | 4 | 302 | 8.0 | 24.1 | 0.00 | 0.00 | 0.00 | 11 | 991.4 |
| 20260505162712 | 5 | 299 | 9.7 | 32.2 | 0.00 | 0.00 | 0.00 | 11 | 991.4 |
| 20260505162703 | 5 | 301 | 9.7 | 32.2 | 0.00 | 0.00 | 0.00 | 11 | 991.4 |
| 20260505162608 | 5 | 310 | 8.0 | 32.2 | 0.00 | 0.00 | 0.00 | 11 | 991.3 |
| 20260505161803 | 4 | 294 | 14.5 | 32.2 | 0.00 | 0.00 | 0.00 | 11 | 991.4 |
| 20260505161608 | 4 | 296 | 8.0 | 24.1 | 0.00 | 0.00 | 0.00 | 11 | 991.4 |
| 20260505160903 | 5 | 324 | 6.4 | 29.0 | 0.00 | 0.00 | 0.00 | 11 | 991.3 |
| 20260505160608 | 5 | 334 | 9.7 | 29.0 | 0.00 | 0.00 | 0.00 | 11 | 991.3 |
| 20260505160113 | 5 | 356 | 14.5 | 25.7 | 0.00 | 0.00 | 0.00 | 11 | 991.2 |
| 20260505153107 | 5 | 342 | 11.3 | 30.6 | 0.00 | 0.00 | 0.00 | 11 | 991.1 |
| 20260505152703 | 5 | 338 | 8.0 | 27.4 | 0.00 | 0.00 | 0.00 | 11 | 990.9 |
| 20260505152607 | 5 | 333 | 11.3 | 27.4 | 0.00 | 0.00 | 0.00 | 11 | 991.0 |
| 20260505151804 | 3 | 292 | 8.0 | 24.1 | 0.00 | 0.00 | 0.00 | 11 | 990.9 |
| 20260505151607 | 4 | 310 | 9.7 | 24.1 | 0.00 | 0.00 | 0.00 | 11 | 990.9 |
| 20260505151110 | 4 | 330 | 11.3 | 24.1 | 0.00 | 0.00 | 0.00 | 11 | 990.9 |
| 20260505150903 | 5 | 329 | 9.7 | 17.7 | 0.00 | 0.00 | 0.00 | 11 | 990.9 |
| 20260505140607 | 3 | 355 | 6.4 | 19.3 | 0.00 | 0.00 | 0.00 | 11 | 990.5 |
| 20260505140107 | 3 | 337 | 8.0 | 19.3 | 0.00 | 0.00 | 0.00 | 11 | 990.4 |
| 20260505130110 | 6 | 283 | 14.5 | 24.1 | 0.00 | 0.00 | 0.00 | 11 | 990.3 |
| 20260505124503 | 5 | 342 | 12.9 | 30.6 | 0.00 | 0.00 | 0.00 | 11 | 990.1 |
| 20260505124110 | 5 | 329 | 11.3 | 30.6 | 0.00 | 0.00 | 0.00 | 11 | 990.2 |
| 20260505123608 | 4 | 310 | 11.3 | 24.1 | 0.00 | 0.00 | 0.00 | 11 | 990.1 |
| 20260505123603 | 4 | 310 | 11.3 | 24.1 | 0.00 | 0.00 | 0.00 | 11 | 990.1 |
| 20260505122715 | 3 | 310 | 12.9 | 30.6 | 0.00 | 0.00 | 0.00 | 11 | 990.1 |
| 20260505122703 | 3 | 310 | 12.9 | 30.6 | 0.00 | 0.00 | 0.00 | 11 | 990.1 |
| 20260505121803 | 3 | 339 | 16.1 | 30.6 | 0.00 | 0.00 | 0.00 | 11 | 990.0 |
| 20260505120903 | 3 | 305 | 6.4 | 35.4 | 0.00 | 0.00 | 0.00 | 11 | 990.0 |
| 20260505120607 | 3 | 306 | 11.3 | 35.4 | 0.00 | 0.00 | 0.00 | 11 | 989.9 |
| 20260505120004 | 5 | 331 | 22.5 | 35.4 | 0.00 | 0.00 | 0.00 | 11 | 989.8 |
| 20260505115403 | 4 | 323 | 12.9 | 27.4 | 0.00 | 0.00 | 0.00 | 11 | 989.8 |
| 20260505115106 | 5 | 308 | 14.5 | 27.4 | 0.00 | 0.00 | 0.00 | 11 | 989.8 |
| 20260505114503 | 4 | 323 | 8.0 | 27.4 | 0.00 | 0.00 | 0.00 | 11 | 989.6 |
| 20260505113606 | 5 | 293 | 11.3 | 27.4 | 0.00 | 0.00 | 0.00 | 11 | 989.8 |
| 20260505113603 | 5 | 288 | 12.9 | 27.4 | 0.00 | 0.00 | 0.00 | 11 | 989.7 |
| 20260505112703 | 4 | 307 | 14.5 | 27.4 | 0.00 | 0.00 | 0.00 | 11 | 989.6 |
| 20260505112606 | 4 | 315 | 9.7 | 27.4 | 0.00 | 0.00 | 0.00 | 11 | 989.6 |
| 20260505112106 | 3 | 306 | 12.9 | 25.7 | 0.00 | 0.00 | 0.00 | 11 | 989.6 |
| 20260505111803 | 3 | 314 | 11.3 | 25.7 | 0.00 | 0.00 | 0.00 | 11 | 989.8 |
| 20260505111606 | 4 | 322 | 12.9 | 25.7 | 0.00 | 0.00 | 0.00 | 11 | 989.6 |
| 20260505110903 | 3 | 354 | 12.9 | 30.6 | 0.00 | 0.00 | 0.00 | 11 | 989.5 |
| 20260505110713 | 3 | 356 | 12.9 | 30.6 | 0.00 | 0.00 | 0.00 | 11 | 989.5 |
| 20260505110606 | 4 | 355 | 12.9 | 30.6 | 0.00 | 0.00 | 0.00 | 11 | 989.7 |
| 20260505102106 | 4 | 343 | 11.3 | 27.4 | 0.00 | 0.00 | 0.00 | 11 | 989.3 |
| 20260505101803 | 4 | 340 | 17.7 | 27.4 | 0.00 | 0.00 | 0.00 | 11 | 989.2 |
| 20260505101607 | 4 | 333 | 12.9 | 30.6 | 0.00 | 0.00 | 0.00 | 11 | 989.2 |
| 20260505101108 | 4 | 324 | 12.9 | 30.6 | 0.00 | 0.00 | 0.00 | 11 | 989.2 |
| 20260505100903 | 3 | 319 | 8.0 | 30.6 | 0.00 | 0.00 | 0.00 | 11 | 989.1 |
| 20260505100715 | 3 | 316 | 16.1 | 30.6 | 0.00 | 0.00 | 0.00 | 11 | 989.1 |
| 20260505100003 | 5 | 292 | 8.0 | 27.4 | 0.00 | 0.00 | 0.00 | 11 | 988.9 |
| 20260505095951 | 5 | 288 | 8.0 | 27.4 | 0.00 | 0.00 | 0.00 | 11 | 989.0 |
| 20260505095451 | 5 | 265 | 16.1 | 27.4 | 0.00 | 0.00 | 0.00 | 11 | 989.0 |
| 20260505095403 | 5 | 265 | 16.1 | 27.4 | 0.00 | 0.00 | 0.00 | 11 | 989.0 |
| 20260505094951 | 5 | 303 | 8.0 | 27.4 | 0.00 | 0.00 | 0.00 | 11 | 989.1 |
| 20260505094711 | 5 | 307 | 16.1 | 25.7 | 0.00 | 0.00 | 0.00 | 11 | 989.0 |
| 20260505094503 | 5 | 317 | 11.3 | 25.7 | 0.00 | 0.00 | 0.00 | 11 | 988.9 |
| 20260505094451 | 4 | 320 | 12.9 | 25.7 | 0.00 | 0.00 | 0.00 | 11 | 989.2 |
| 20260505093951 | 4 | 323 | 9.7 | 33.8 | 0.00 | 0.00 | 0.00 | 11 | 989.2 |
| 20260505093603 | 4 | 328 | 11.3 | 33.8 | 0.00 | 0.00 | 0.00 | 11 | 989.2 |
| 20260505093451 | 4 | 330 | 9.7 | 33.8 | 0.00 | 0.00 | 0.00 | 11 | 989.1 |
| 20260505092951 | 3 | 339 | 17.7 | 27.4 | 0.00 | 0.00 | 0.00 | 11 | 988.9 |
| 20260505092711 | 3 | 344 | 14.5 | 25.7 | 0.00 | 0.00 | 0.00 | 11 | 989.0 |
| 20260505092703 | 3 | 344 | 14.5 | 25.7 | 0.00 | 0.00 | 0.00 | 11 | 989.0 |
| 20260505092451 | 4 | 343 | 17.7 | 25.7 | 0.00 | 0.00 | 0.00 | 11 | 989.0 |
| 20260505091951 | 4 | 329 | 12.9 | 33.8 | 0.00 | 0.00 | 0.00 | 11 | 988.9 |
| 20260505091803 | 4 | 329 | 9.7 | 33.8 | 0.00 | 0.00 | 0.00 | 11 | 988.9 |
| 20260505091451 | 4 | 327 | 11.3 | 33.8 | 0.00 | 0.00 | 0.00 | 11 | 989.0 |
| 20260505090951 | 4 | 333 | 14.5 | 29.0 | 0.00 | 0.00 | 0.00 | 11 | 988.9 |
| 20260505090903 | 4 | 333 | 14.5 | 29.0 | 0.00 | 0.00 | 0.00 | 11 | 988.9 |
| 20260505090711 | 3 | 334 | 12.9 | 29.0 | 0.00 | 0.00 | 0.00 | 11 | 989.0 |
| 20260505090451 | 3 | 332 | 16.1 | 29.0 | 0.00 | 0.00 | 0.00 | 11 | 988.9 |
| 20260505090003 | 3 | 339 | 16.1 | 37.0 | 0.00 | 0.00 | 0.00 | 11 | 989.0 |
| 20260505085951 | 3 | 340 | 17.7 | 37.0 | 0.00 | 0.00 | 0.00 | 11 | 989.0 |
| 20260505085451 | 3 | 341 | 12.9 | 37.0 | 0.00 | 0.00 | 0.00 | 11 | 988.9 |
| 20260505085403 | 3 | 341 | 12.9 | 37.0 | 0.00 | 0.00 | 0.00 | 11 | 988.9 |
| 20260505084951 | 3 | 344 | 19.3 | 35.4 | 0.00 | 0.00 | 0.00 | 11 | 988.8 |
| 20260505084711 | 3 | 340 | 12.9 | 35.4 | 0.00 | 0.00 | 0.00 | 11 | 989.0 |
| 20260505084503 | 3 | 340 | 19.3 | 35.4 | 0.00 | 0.00 | 0.00 | 11 | 988.8 |
| 20260505084451 | 3 | 342 | 19.3 | 33.8 | 0.00 | 0.00 | 0.00 | 11 | 988.9 |
| 20260505083951 | 3 | 327 | 19.3 | 33.8 | 0.00 | 0.00 | 0.00 | 11 | 988.9 |
| 20260505083603 | 3 | 334 | 12.9 | 27.4 | 0.00 | 0.00 | 0.00 | 11 | 988.7 |
| 20260505083451 | 3 | 334 | 17.7 | 29.0 | 0.00 | 0.00 | 0.00 | 11 | 988.8 |
| 20260505082951 | 3 | 338 | 12.9 | 29.0 | 0.00 | 0.00 | 0.00 | 11 | 988.7 |
| 20260505082712 | 3 | 332 | 12.9 | 33.8 | 0.00 | 0.00 | 0.00 | 11 | 988.6 |
| 20260505082703 | 3 | 332 | 12.9 | 33.8 | 0.00 | 0.00 | 0.00 | 11 | 988.6 |
| 20260505082338 | 3 | 327 | 11.3 | 33.8 | 0.00 | 0.00 | 0.00 | 11 | 988.5 |
| 20260505081838 | 3 | 326 | 12.9 | 33.8 | 0.00 | 0.00 | 0.00 | 11 | 988.7 |
| 20260505081804 | 3 | 326 | 12.9 | 33.8 | 0.00 | 0.00 | 0.00 | 11 | 988.7 |
| 20260505081338 | 3 | 330 | 8.0 | 33.8 | 0.00 | 0.00 | 0.00 | 11 | 988.5 |
| 20260505080903 | 3 | 328 | 11.3 | 33.8 | 0.00 | 0.00 | 0.00 | 11 | 988.7 |
| 20260505080838 | 3 | 330 | 17.7 | 33.8 | 0.00 | 0.00 | 0.00 | 11 | 988.5 |
| 20260505080712 | 3 | 327 | 16.1 | 33.8 | 0.00 | 0.00 | 0.00 | 11 | 988.6 |
| 20260505080338 | 2 | 317 | 12.9 | 27.4 | 0.00 | 0.00 | 0.00 | 11 | 988.6 |
| 20260505080003 | 2 | 327 | 12.9 | 27.4 | 0.00 | 0.00 | 0.00 | 11 | 988.6 |
| 20260505075838 | 2 | 331 | 12.9 | 27.4 | 0.00 | 0.00 | 0.00 | 11 | 988.6 |
| 20260505075403 | 2 | 342 | 12.9 | 27.4 | 0.00 | 0.00 | 0.00 | 11 | 988.5 |
| 20260505075338 | 2 | 341 | 9.7 | 27.4 | 0.00 | 0.00 | 0.00 | 11 | 988.5 |
| 20260505074838 | 2 | 339 | 12.9 | 27.4 | 0.00 | 0.00 | 0.00 | 11 | 988.4 |
| 20260505074712 | 2 | 340 | 17.7 | 27.4 | 0.00 | 0.00 | 0.00 | 11 | 988.4 |
| 20260505074503 | 2 | 345 | 16.1 | 29.0 | 0.00 | 0.00 | 0.00 | 11 | 988.6 |
| 20260505074338 | 2 | 349 | 12.9 | 29.0 | 0.00 | 0.00 | 0.00 | 11 | 988.6 |
| 20260505073838 | 2 | 348 | 14.5 | 29.0 | 0.00 | 0.00 | 0.00 | 11 | 988.6 |
| 20260505073603 | 2 | 343 | 17.7 | 29.0 | 0.00 | 0.00 | 0.00 | 11 | 988.6 |
| 20260505073338 | 2 | 345 | 9.7 | 27.4 | 0.00 | 0.00 | 0.00 | 11 | 988.5 |
| 20260505072838 | 2 | 352 | 9.7 | 30.6 | 0.00 | 0.00 | 0.00 | 11 | 988.6 |
| 20260505072712 | 2 | 348 | 9.7 | 30.6 | 0.00 | 0.00 | 0.00 | 11 | 988.6 |
| 20260505072703 | 2 | 348 | 9.7 | 30.6 | 0.00 | 0.00 | 0.00 | 11 | 988.6 |
| 20260505072338 | 2 | 349 | 8.0 | 30.6 | 0.00 | 0.00 | 0.00 | 11 | 988.6 |
| 20260505071838 | 2 | 334 | 19.3 | 30.6 | 0.00 | 0.00 | 0.00 | 11 | 988.4 |
| 20260505071803 | 2 | 334 | 19.3 | 30.6 | 0.00 | 0.00 | 0.00 | 11 | 988.4 |
| 20260505071338 | 2 | 327 | 12.9 | 25.7 | 0.00 | 0.00 | 0.00 | 11 | 988.4 |
| 20260505070903 | 2 | 321 | 12.9 | 27.4 | 0.00 | 0.00 | 0.00 | 11 | 988.4 |
| 20260505070838 | 2 | 326 | 9.7 | 27.4 | 0.00 | 0.00 | 0.00 | 11 | 988.4 |
| 20260505070712 | 2 | 326 | 11.3 | 27.4 | 0.00 | 0.00 | 0.00 | 11 | 988.5 |
| 20260505070338 | 2 | 315 | 12.9 | 27.4 | 0.00 | 0.00 | 0.00 | 11 | 988.5 |
| 20260505070004 | 2 | 316 | 8.0 | 27.4 | 0.00 | 0.00 | 0.00 | 11 | 988.3 |
| 20260505065838 | 2 | 317 | 8.0 | 27.4 | 0.00 | 0.00 | 0.00 | 11 | 988.5 |
| 20260505065403 | 2 | 339 | 12.9 | 27.4 | 0.00 | 0.00 | 0.00 | 11 | 988.3 |
| 20260505065338 | 2 | 345 | 11.3 | 27.4 | 0.00 | 0.00 | 0.00 | 11 | 988.3 |
| 20260505064838 | 2 | 360 | 9.7 | 27.4 | 0.00 | 0.00 | 0.00 | 11 | 988.3 |
| 20260505064712 | 2 | 356 | 11.3 | 27.4 | 0.00 | 0.00 | 0.00 | 11 | 988.2 |
| 20260505064503 | 2 | 346 | 9.7 | 27.4 | 0.00 | 0.00 | 0.00 | 11 | 988.2 |
| 20260505064338 | 1 | 337 | 12.9 | 27.4 | 0.00 | 0.00 | 0.00 | 11 | 988.2 |
| 20260505063838 | 1 | 307 | 14.5 | 33.8 | 0.00 | 0.00 | 0.00 | 11 | 988.2 |
| 20260505063603 | 1 | 317 | 11.3 | 33.8 | 0.00 | 0.00 | 0.00 | 11 | 988.3 |
| 20260505063338 | 1 | 322 | 12.9 | 33.8 | 0.00 | 0.00 | 0.00 | 11 | 988.1 |
| 20260505062837 | 1 | 327 | 12.9 | 25.7 | 0.00 | 0.00 | 0.00 | 11 | 988.2 |
| 20260505062711 | 1 | 323 | 12.9 | 25.7 | 0.00 | 0.00 | 0.00 | 11 | 988.1 |
| 20260505062703 | 1 | 323 | 12.9 | 25.7 | 0.00 | 0.00 | 0.00 | 11 | 988.1 |
| 20260505062337 | 1 | 326 | 8.0 | 24.1 | 0.00 | 0.00 | 0.00 | 11 | 988.1 |
| 20260505061837 | 1 | 313 | 8.0 | 30.6 | 0.00 | 0.00 | 0.00 | 11 | 988.1 |
| 20260505061803 | 1 | 313 | 8.0 | 30.6 | 0.00 | 0.00 | 0.00 | 11 | 988.1 |
| 20260505061337 | 1 | 308 | 9.7 | 30.6 | 0.00 | 0.00 | 0.00 | 11 | 987.9 |
| 20260505060903 | 1 | 316 | 17.7 | 27.4 | 0.00 | 0.00 | 0.00 | 11 | 988.1 |
| 20260505060837 | 1 | 322 | 16.1 | 27.4 | 0.00 | 0.00 | 0.00 | 11 | 988.2 |
| 20260505060711 | 1 | 316 | 11.3 | 27.4 | 0.00 | 0.00 | 0.00 | 11 | 988.1 |
| 20260505060337 | 1 | 315 | 12.9 | 29.0 | 0.00 | 0.00 | 0.00 | 11 | 988.0 |
| 20260505060003 | 1 | 297 | 12.9 | 29.0 | 0.00 | 0.00 | 0.00 | 11 | 988.1 |
| 20260505055837 | 1 | 294 | 12.9 | 29.0 | 0.00 | 0.00 | 0.00 | 11 | 988.1 |
| 20260505055403 | 1 | 292 | 14.5 | 29.0 | 0.00 | 0.00 | 0.00 | 11 | 988.1 |
| 20260505055337 | 1 | 294 | 11.3 | 27.4 | 0.00 | 0.00 | 0.00 | 11 | 988.1 |
| 20260505054837 | 1 | 310 | 12.9 | 22.5 | 0.00 | 0.00 | 0.00 | 11 | 987.9 |
| 20260505054711 | 1 | 310 | 9.7 | 20.9 | 0.00 | 0.00 | 0.00 | 11 | 988.0 |
| 20260505054503 | 1 | 310 | 6.4 | 20.9 | 0.00 | 0.00 | 0.00 | 11 | 988.0 |
| 20260505054337 | 1 | 307 | 6.4 | 20.9 | 0.00 | 0.00 | 0.00 | 11 | 988.0 |
| 20260505053837 | 1 | 307 | 9.7 | 20.9 | 0.00 | 0.00 | 0.00 | 11 | 988.0 |
| 20260505053603 | 1 | 301 | 12.9 | 25.7 | 0.00 | 0.00 | 0.00 | 11 | 987.9 |
| 20260505053337 | 1 | 295 | 6.4 | 25.7 | 0.00 | 0.00 | 0.00 | 11 | 987.9 |
| 20260505052837 | 0 | 298 | 8.0 | 25.7 | 0.00 | 0.00 | 0.00 | 11 | 988.0 |
| 20260505052713 | 0 | 299 | 12.9 | 25.7 | 0.00 | 0.00 | 0.00 | 11 | 987.9 |
| 20260505052703 | 0 | 299 | 12.9 | 25.7 | 0.00 | 0.00 | 0.00 | 11 | 987.9 |
| 20260505052339 | 0 | 313 | 14.5 | 27.4 | 0.00 | 0.00 | 0.00 | 11 | 987.9 |
| 20260505051837 | 0 | 312 | 9.7 | 27.4 | 0.00 | 0.00 | 0.00 | 11 | 987.9 |
| 20260505051803 | 0 | 312 | 9.7 | 27.4 | 0.00 | 0.00 | 0.00 | 11 | 987.9 |
| 20260505051337 | 0 | 309 | 9.7 | 24.1 | 0.00 | 0.00 | 0.00 | 11 | 987.9 |
| 20260505050903 | 0 | 323 | 9.7 | 27.4 | 0.00 | 0.00 | 0.00 | 11 | 987.8 |
| 20260505050839 | 0 | 326 | 9.7 | 27.4 | 0.00 | 0.00 | 0.00 | 11 | 987.7 |
| 20260505050713 | 0 | 324 | 8.0 | 27.4 | 0.00 | 0.00 | 0.00 | 11 | 987.7 |
| 20260505050339 | 0 | 322 | 9.7 | 27.4 | 0.00 | 0.00 | 0.00 | 11 | 987.8 |
| 20260505041339 | 0 | 301 | 8.0 | 22.5 | 0.00 | 0.00 | 0.00 | 11 | 987.5 |
| 20260505040903 | 0 | 309 | 6.4 | 22.5 | 0.00 | 0.00 | 0.00 | 11 | 987.5 |
| 20260505040839 | 0 | 307 | 6.4 | 22.5 | 0.00 | 0.00 | 0.00 | 11 | 987.6 |
| 20260505040713 | 0 | 307 | 8.0 | 22.5 | 0.00 | 0.00 | 0.00 | 11 | 987.5 |
| 20260505040339 | 0 | 311 | 6.4 | 22.5 | 0.00 | 0.00 | 0.00 | 11 | 987.5 |
| 20260505040003 | 0 | 317 | 3.2 | 20.9 | 0.00 | 0.00 | 0.00 | 11 | 987.5 |
| 20260505035839 | 0 | 316 | 9.7 | 20.9 | 0.00 | 0.00 | 0.00 | 11 | 987.4 |
| 20260505035403 | 0 | 314 | 14.5 | 19.3 | 0.00 | 0.00 | 0.00 | 11 | 987.5 |
| 20260505035339 | 0 | 311 | 9.7 | 17.7 | 0.00 | 0.00 | 0.00 | 11 | 987.5 |
| 20260505034839 | 0 | 298 | 12.9 | 17.7 | 0.00 | 0.00 | 0.00 | 11 | 987.5 |
| 20260505034713 | 0 | 299 | 9.7 | 20.9 | 0.00 | 0.00 | 0.00 | 11 | 987.6 |
| 20260505034503 | 0 | 302 | 6.4 | 24.1 | 0.00 | 0.00 | 0.00 | 11 | 987.6 |
| 20260505034339 | 0 | 313 | 6.4 | 24.1 | 0.00 | 0.00 | 0.00 | 11 | 987.5 |
| 20260505033929 | 0 | 305 | 9.7 | 24.1 | 0.00 | 0.00 | 0.00 | 11 | 987.4 |
| 20260505033603 | 0 | 304 | 9.7 | 24.1 | 0.00 | 0.00 | 0.00 | 11 | 987.5 |
| 20260505033429 | 0 | 295 | 11.3 | 24.1 | 0.00 | 0.00 | 0.00 | 11 | 987.6 |
| 20260505032929 | 0 | 294 | 6.4 | 20.9 | 0.00 | 0.00 | 0.00 | 11 | 987.4 |
| 20260505032713 | 0 | 299 | 6.4 | 20.9 | 0.00 | 0.00 | 0.00 | 11 | 987.4 |
| 20260505032703 | 0 | 299 | 6.4 | 20.9 | 0.00 | 0.00 | 0.00 | 11 | 987.4 |
| 20260505032429 | 0 | 310 | 9.7 | 19.3 | 0.00 | 0.00 | 0.00 | 11 | 987.3 |
| 20260505031929 | 0 | 317 | 6.4 | 17.7 | 0.00 | 0.00 | 0.00 | 11 | 987.4 |
| 20260505031803 | 0 | 318 | 6.4 | 17.7 | 0.00 | 0.00 | 0.00 | 11 | 987.4 |
| 20260505031429 | 0 | 317 | 4.8 | 17.7 | 0.00 | 0.00 | 0.00 | 11 | 987.4 |
| 20260505030929 | 0 | 317 | 6.4 | 17.7 | 0.00 | 0.00 | 0.00 | 11 | 987.3 |
| 20260505030903 | 0 | 318 | 9.7 | 17.7 | 0.00 | 0.00 | 0.00 | 11 | 987.4 |
| 20260505030713 | 0 | 312 | 9.7 | 17.7 | 0.00 | 0.00 | 0.00 | 11 | 987.3 |
| 20260505030429 | 0 | 307 | 9.7 | 17.7 | 0.00 | 0.00 | 0.00 | 11 | 987.4 |
| 20260505030003 | 0 | 293 | 9.7 | 17.7 | 0.00 | 0.00 | 0.00 | 11 | 987.5 |
| 20260505025929 | 0 | 285 | 11.3 | 16.1 | 0.00 | 0.00 | 0.00 | 11 | 987.4 |
| 20260505025429 | -1 | 247 | 0.0 | 8.0 | 0.00 | 0.00 | 0.00 | 11 | 987.4 |
| 20260505025403 | -1 | 247 | 0.0 | 8.0 | 0.00 | 0.00 | 0.00 | 11 | 987.4 |
| 20260505024929 | 0 | 252 | 3.2 | 6.4 | 0.00 | 0.00 | 0.00 | 11 | 987.3 |
| 20260505024713 | 0 | 249 | 3.2 | 6.4 | 0.00 | 0.00 | 0.00 | 11 | 987.2 |
| 20260505024503 | 0 | 277 | 3.2 | 9.7 | 0.00 | 0.00 | 0.00 | 11 | 987.3 |
| 20260505024429 | 0 | 288 | 3.2 | 9.7 | 0.00 | 0.00 | 0.00 | 11 | 987.3 |
| 20260505023930 | 0 | 293 | 4.8 | 9.7 | 0.00 | 0.00 | 0.00 | 11 | 987.2 |
| 20260505023603 | 0 | 309 | 3.2 | 12.9 | 0.00 | 0.00 | 0.00 | 11 | 987.4 |
| 20260505023429 | 0 | 299 | 3.2 | 12.9 | 0.00 | 0.00 | 0.00 | 11 | 987.2 |
| 20260505022929 | 0 | 307 | 1.6 | 12.9 | 0.00 | 0.00 | 0.00 | 11 | 987.4 |
| 20260505022713 | 0 | 293 | 4.8 | 12.9 | 0.00 | 0.00 | 0.00 | 11 | 987.3 |
| 20260505022704 | 0 | 293 | 4.8 | 12.9 | 0.00 | 0.00 | 0.00 | 11 | 987.3 |
| 20260505022429 | 0 | 284 | 4.8 | 12.9 | 0.00 | 0.00 | 0.00 | 11 | 987.4 |
| 20260505021929 | 0 | 300 | 3.2 | 14.5 | 0.00 | 0.00 | 0.00 | 11 | 987.4 |
| 20260505021803 | 0 | 300 | 6.4 | 14.5 | 0.00 | 0.00 | 0.00 | 11 | 987.2 |
| 20260505021429 | 0 | 314 | 8.0 | 14.5 | 0.00 | 0.00 | 0.00 | 11 | 987.2 |
| 20260505020929 | 0 | 307 | 4.8 | 12.9 | 0.00 | 0.00 | 0.00 | 11 | 987.2 |
| 20260505020903 | 0 | 306 | 6.4 | 12.9 | 0.00 | 0.00 | 0.00 | 11 | 987.2 |
| 20260505020713 | 0 | 307 | 6.4 | 16.1 | 0.00 | 0.00 | 0.00 | 11 | 987.4 |
| 20260505020429 | 0 | 309 | 6.4 | 17.7 | 0.00 | 0.00 | 0.00 | 11 | 987.2 |